GW1941 Weather Reports


Display with metric or nautical units.
time (UTC)temp
F
wind
direction
speed
MPH
gust
MPH
rain 1hr
in
rain 24hr
in
rain mn
in
humidity
%
barometer
mb
20260506182632 62 177 4.0 5.0 0.12 0.02 0.02 94 1009.8
20260506182128 61 154 3.0 5.0 0.05 0.01 0.01 94 1009.7
20260506181626 62 125 2.0 3.0 0.00 0.00 0.00 93 1010.3
20260506181123 62 195 4.0 5.0 0.00 0.00 0.00 93 1010.2
20260506180620 62 86 3.0 3.0 0.00 0.00 0.00 92 1010.2
20260506180116 62 202 3.0 5.0 0.00 0.00 0.00 91 1010.3
20260506175613 63 96 3.0 3.0 0.00 0.00 0.00 89 1010.3
20260506175109 63 111 4.0 5.0 0.00 0.00 0.00 86 1010.5
20260506174608 64 124 3.0 5.0 0.00 0.00 0.00 85 1010.4
20260506174104 65 188 3.0 3.0 0.00 0.00 0.00 82 1010.5
20260506173602 65 110 7.0 9.0 0.00 0.00 0.00 82 1010.4
20260506173058 65 121 4.0 6.0 0.00 0.00 0.00 82 1010.6
20260506172556 65 112 7.0 9.0 0.00 0.00 0.00 82 1010.3
20260506172051 65 32 4.0 6.0 0.00 0.00 0.00 82 1010.3
20260506171549 64 203 6.0 9.0 0.00 0.00 0.00 83 1010.4
20260506171047 65 163 5.0 6.0 0.00 0.00 0.00 83 1010.5
20260506170544 64 104 6.0 8.0 0.00 0.00 0.00 82 1010.6
20260506170041 64 103 3.0 6.0 0.00 0.00 0.00 83 1010.7
20260506165540 64 89 4.0 6.0 0.00 0.00 0.00 82 1010.7
20260506165036 64 241 5.0 6.0 0.00 0.00 0.00 81 1010.9
20260506164533 65 149 5.0 7.0 0.00 0.00 0.00 81 1011.0
20260506164030 65 114 6.0 8.0 0.00 0.00 0.00 81 1011.1
20260506163526 64 89 7.0 10.0 0.00 0.00 0.00 82 1011.5
20260506163022 64 81 7.0 7.0 0.00 0.00 0.00 82 1011.7
20260506162518 64 44 5.0 7.0 0.00 0.00 0.00 82 1011.6
20260506162015 64 97 5.0 7.0 0.00 0.00 0.00 82 1011.5
20260506161513 64 161 4.0 5.0 0.00 0.00 0.00 83 1011.5
20260506161010 64 51 5.0 7.0 0.00 0.00 0.00 82 1011.5
20260506160507 64 281 4.0 6.0 0.00 0.00 0.00 83 1011.3
20260506160005 64 71 7.0 8.0 0.00 0.00 0.00 83 1011.7
20260506155502 64 94 6.0 13.0 0.00 0.00 0.00 83 1011.7
20260506153634 65 134 6.0 8.0 0.00 0.00 0.00 80 1011.9
20260506153131 66 121 6.0 9.0 0.00 0.00 0.00 80 1011.9
20260506152628 66 104 7.0 9.0 0.00 0.00 0.00 79 1011.6
20260506152126 66 81 5.0 8.0 0.00 0.00 0.00 78 1011.8
20260506151625 66 70 4.0 7.0 0.00 0.00 0.00 78 1011.8
20260506151121 66 271 3.0 3.0 0.00 0.00 0.00 79 1011.7
20260506150618 66 130 6.0 8.0 0.00 0.00 0.00 78 1011.7
20260506150115 65 80 4.0 6.0 0.00 0.00 0.00 80 1011.8
20260506145612 65 240 4.0 6.0 0.00 0.00 0.00 81 1012.0
20260506145109 66 149 5.0 6.0 0.00 0.00 0.00 80 1011.8
20260506144606 66 242 3.0 3.0 0.00 0.00 0.00 79 1012.0
20260506144102 66 97 5.0 7.0 0.00 0.00 0.00 79 1011.9
20260506143600 67 137 5.0 7.0 0.00 0.00 0.00 78 1012.2
20260506143058 67 155 6.0 7.0 0.00 0.00 0.00 77 1012.1
20260506142556 67 202 5.0 8.0 0.00 0.00 0.00 77 1011.9
20260506142054 67 133 5.0 6.0 0.00 0.00 0.00 78 1012.1
20260506141551 66 116 6.0 7.0 0.00 0.00 0.00 78 1012.0
20260506141049 66 136 3.0 6.0 0.00 0.00 0.00 80 1012.0
20260506140547 65 125 3.0 6.0 0.00 0.00 0.00 80 1012.2
20260506140044 65 315 5.0 7.0 0.00 0.00 0.00 82 1011.9
20260506135541 64 96 4.0 6.0 0.00 0.00 0.00 82 1012.1
20260506135037 64 136 4.0 5.0 0.00 0.00 0.00 83 1012.2
20260506134533 64 248 2.0 3.0 0.00 0.00 0.00 83 1012.2
20260506134029 65 107 7.0 9.0 0.00 0.00 0.00 81 1012.3
20260506133527 64 116 5.0 7.0 0.00 0.00 0.00 82 1012.2
20260506133024 64 174 3.0 3.0 0.00 0.00 0.00 82 1012.4
20260506132521 65 144 3.0 5.0 0.00 0.00 0.00 81 1012.4
20260506132018 65 260 3.0 3.0 0.00 0.00 0.00 81 1012.4
20260506131515 65 158 3.0 3.0 0.00 0.00 0.00 81 1012.5
20260506131011 65 341 5.0 6.0 0.00 0.00 0.00 80 1012.4
20260506130508 65 182 3.0 5.0 0.00 0.00 0.00 81 1012.5
20260506130006 65 172 4.0 6.0 0.00 0.00 0.00 81 1012.5
20260506125504 65 255 3.0 5.0 0.00 0.00 0.00 81 1012.5
20260506125001 64 129 5.0 6.0 0.00 0.00 0.00 82 1012.6
20260506124459 64 133 4.0 6.0 0.00 0.00 0.00 82 1012.6
20260506123957 63 73 6.0 8.0 0.00 0.00 0.00 83 1012.5
20260506123454 63 89 5.0 5.0 0.00 0.00 0.00 83 1012.6
20260506122952 63 133 5.0 7.0 0.00 0.00 0.00 84 1012.4
20260506122449 63 24 5.0 7.0 0.00 0.00 0.00 83 1012.5
20260506121947 63 92 9.0 10.0 0.00 0.00 0.00 84 1012.4
20260506121444 62 46 4.0 6.0 0.00 0.00 0.00 85 1012.6
20260506120940 63 20 5.0 7.0 0.00 0.00 0.00 84 1012.5
20260506120438 62 32 5.0 7.0 0.00 0.00 0.00 85 1012.4
20260506115935 62 111 5.0 6.0 0.00 0.00 0.00 85 1012.4
20260506115433 62 236 4.0 5.0 0.00 0.00 0.00 86 1012.5
20260506114931 61 238 7.0 9.0 0.00 0.00 0.00 87 1012.5
20260506114428 61 69 6.0 8.0 0.00 0.00 0.00 87 1012.4
20260506113927 61 29 7.0 11.0 0.00 0.00 0.00 87 1012.2
20260506113424 61 83 7.0 9.0 0.00 0.00 0.00 87 1012.4
20260506112920 61 72 4.0 6.0 0.00 0.00 0.00 87 1012.4
20260506112419 61 96 4.0 6.0 0.00 0.00 0.00 87 1012.5
20260506111916 60 116 4.0 6.0 0.00 0.00 0.00 88 1012.4
20260506111414 60 18 7.0 9.0 0.00 0.00 0.00 89 1012.5
20260506110910 60 124 6.0 8.0 0.00 0.00 0.00 89 1012.7
20260506110408 60 341 2.0 3.0 0.00 0.00 0.00 90 1012.4
20260506105905 60 57 5.0 7.0 0.00 0.00 0.00 90 1012.4
20260506105401 59 87 5.0 6.0 0.00 0.00 0.00 90 1012.7
20260506104858 59 162 4.0 5.0 0.00 0.00 0.00 91 1012.7
20260506104356 59 112 6.0 7.0 0.00 0.00 0.00 91 1012.6
20260506103854 59 95 3.0 3.0 0.00 0.00 0.00 92 1012.2
20260506103351 59 138 3.0 3.0 0.00 0.00 0.00 92 1012.2
20260506102848 59 93 5.0 6.0 0.00 0.00 0.00 92 1012.2
20260506102346 59 126 6.0 7.0 0.00 0.00 0.00 92 1012.5
20260506101843 59 138 4.0 5.0 0.00 0.00 0.00 92 1012.4
20260506101339 59 225 2.0 2.0 0.00 0.00 0.00 92 1012.4
20260506100837 59 137 6.0 9.0 0.00 0.00 0.00 92 1012.2
20260506100335 59 116 4.0 6.0 0.00 0.00 0.00 92 1012.3
20260506095833 59 100 5.0 7.0 0.00 0.00 0.00 92 1012.2
20260506095330 59 56 4.0 6.0 0.00 0.00 0.00 92 1012.1
20260506094827 59 43 5.0 7.0 0.00 0.00 0.00 92 1012.0
20260506094326 59 115 6.0 9.0 0.00 0.00 0.00 92 1012.0
20260506093823 59 267 2.0 5.0 0.00 0.00 0.00 92 1012.2
20260506093320 59 41 4.0 6.0 0.00 0.00 0.00 92 1012.2
20260506092818 59 162 4.0 5.0 0.00 0.00 0.00 92 1012.3
20260506092316 59 108 5.0 6.0 0.00 0.00 0.00 92 1012.3
20260506091812 59 131 5.0 5.0 0.00 0.00 0.00 91 1012.3
20260506091310 59 135 4.0 6.0 0.00 0.00 0.00 91 1012.3
20260506090808 59 141 3.0 5.0 0.00 0.00 0.00 91 1012.4
20260506090304 59 51 5.0 6.0 0.00 0.00 0.00 91 1012.4
20260506085801 59 161 6.0 8.0 0.00 0.00 0.00 91 1012.4
20260506085257 59 147 7.0 8.0 0.00 0.00 0.00 91 1012.5
20260506084754 59 216 4.0 5.0 0.00 0.00 0.00 91 1012.6
20260506084250 59 164 4.0 5.0 0.00 0.00 0.00 91 1012.7
20260506083747 59 198 3.0 5.0 0.00 0.00 0.00 92 1012.6
20260506083245 59 65 5.0 7.0 0.00 0.00 0.00 91 1012.7
20260506082743 59 126 4.0 5.0 0.00 0.00 0.00 91 1012.8
20260506082237 59 202 3.0 3.0 0.00 0.00 0.00 91 1012.4
20260506081736 59 135 5.0 7.0 0.00 0.00 0.00 92 1012.5
20260506081233 59 123 3.0 3.0 0.00 0.00 0.00 91 1012.7
20260506080731 59 134 4.0 5.0 0.00 0.00 0.00 91 1012.4
20260506080227 59 141 3.0 5.0 0.00 0.00 0.00 91 1012.6
20260506073211 59 151 8.0 10.0 0.00 0.00 0.00 90 1012.8
20260506072708 59 136 4.0 6.0 0.00 0.00 0.00 90 1012.8
20260506072206 59 211 3.0 5.0 0.00 0.00 0.00 90 1012.8
20260506071703 59 160 4.0 5.0 0.00 0.00 0.00 90 1012.8
20260506071201 59 127 5.0 6.0 0.00 0.00 0.00 90 1012.9
20260506070657 59 234 4.0 6.0 0.00 0.00 0.00 90 1012.9
20260506070154 59 117 4.0 6.0 0.00 0.00 0.00 90 1012.7
20260506062131 59 265 5.0 7.0 0.00 0.00 0.00 88 1012.7
20260506061627 59 145 4.0 6.0 0.00 0.00 0.00 88 1012.8
20260506061125 59 126 5.0 6.0 0.00 0.00 0.00 88 1012.7
20260506060623 59 110 6.0 7.0 0.00 0.00 0.00 88 1013.1
20260506060120 60 188 5.0 7.0 0.00 0.00 0.00 87 1012.9
20260506051052 61 196 5.0 6.0 0.00 0.00 0.00 85 1013.2
20260506050550 61 73 5.0 6.0 0.00 0.00 0.00 85 1013.3
20260506045040 61 142 7.0 9.0 0.00 0.00 0.00 84 1013.4
20260506044538 61 60 5.0 9.0 0.00 0.00 0.00 84 1013.2
20260506044035 61 100 5.0 7.0 0.00 0.00 0.00 84 1013.3
20260506043532 61 63 4.0 6.0 0.00 0.00 0.00 84 1013.4
20260506043030 61 112 7.0 9.0 0.00 0.00 0.00 83 1013.3
20260506042529 61 122 5.0 7.0 0.00 0.00 0.00 84 1013.5
20260506042027 61 31 7.0 9.0 0.00 0.00 0.00 84 1013.4
20260506041525 61 144 5.0 8.0 0.00 0.00 0.00 84 1013.4
20260506041021 61 106 5.0 8.0 0.00 0.00 0.00 84 1013.3
20260506040519 61 124 5.0 9.0 0.00 0.00 0.00 84 1013.5
20260506040015 61 166 5.0 9.0 0.00 0.00 0.00 83 1013.2
20260506035512 61 135 3.0 6.0 0.00 0.00 0.00 83 1013.3
20260506035009 61 178 7.0 9.0 0.00 0.00 0.00 83 1013.3
20260506034507 61 114 6.0 8.0 0.00 0.00 0.00 83 1013.3
20260506034004 61 146 4.0 6.0 0.00 0.00 0.00 82 1013.3
20260506033501 61 118 6.0 9.0 0.00 0.00 0.00 82 1013.4
20260506032957 61 113 5.0 6.0 0.00 0.00 0.00 82 1013.4
20260506032455 61 179 4.0 6.0 0.00 0.00 0.00 83 1013.6
20260506031951 61 110 5.0 7.0 0.00 0.00 0.00 82 1013.7
20260506031449 61 72 5.0 7.0 0.00 0.00 0.00 82 1013.5
20260506030946 62 110 3.0 5.0 0.00 0.00 0.00 81 1013.2
20260506030444 62 136 7.0 11.0 0.00 0.00 0.00 81 1013.4
20260506025940 62 81 6.0 9.0 0.00 0.00 0.00 81 1013.4
20260506025437 62 192 5.0 8.0 0.00 0.00 0.00 81 1013.6
20260506024934 62 96 7.0 8.0 0.00 0.00 0.00 81 1013.3
20260506024431 62 44 7.0 11.0 0.00 0.00 0.00 80 1013.4
20260506023926 62 346 4.0 6.0 0.00 0.00 0.00 80 1013.2
20260506023424 62 141 7.0 9.0 0.00 0.00 0.00 80 1013.4
20260506022920 62 125 11.0 15.0 0.00 0.00 0.00 80 1013.4
20260506022418 62 100 8.0 13.0 0.00 0.00 0.00 79 1013.5
20260506021916 62 167 7.0 11.0 0.00 0.00 0.00 79 1013.6
20260506021413 62 162 9.0 9.0 0.00 0.00 0.00 79 1013.5
20260506020909 62 120 10.0 13.0 0.00 0.00 0.00 79 1013.4
20260506020408 62 180 9.0 13.0 0.00 0.00 0.00 79 1013.7
20260506015904 62 132 5.0 7.0 0.00 0.00 0.00 79 1013.5
20260506015402 62 132 9.0 11.0 0.00 0.00 0.00 79 1013.3
20260506014859 62 223 5.0 7.0 0.00 0.00 0.00 80 1013.7
20260506014356 62 109 8.0 10.0 0.00 0.00 0.00 80 1013.4
20260506013852 62 98 4.0 5.0 0.00 0.00 0.00 80 1013.4
20260506013350 62 96 6.0 9.0 0.00 0.00 0.00 80 1013.1
20260506012846 62 57 6.0 7.0 0.00 0.00 0.00 80 1013.6
20260506012343 62 110 7.0 9.0 0.00 0.00 0.00 80 1013.3
20260506011840 62 124 7.0 11.0 0.00 0.00 0.00 80 1013.3
20260506011337 62 142 6.0 9.0 0.00 0.00 0.00 80 1013.4
20260506010834 62 122 3.0 5.0 0.00 0.00 0.00 80 1013.1
20260506010332 62 152 6.0 8.0 0.00 0.00 0.00 81 1013.0
20260506005829 62 96 6.0 8.0 0.00 0.00 0.00 80 1013.1
20260506005326 62 122 6.0 10.0 0.00 0.00 0.00 80 1012.8
20260506004822 62 112 8.0 9.0 0.00 0.00 0.00 80 1012.7
20260506004319 62 58 8.0 15.0 0.00 0.00 0.00 79 1012.7
20260506003815 62 135 7.0 8.0 0.00 0.00 0.00 79 1012.8
20260506003312 62 103 7.0 10.0 0.00 0.00 0.00 79 1013.0
20260506002808 63 143 4.0 6.0 0.00 0.00 0.00 79 1013.0
20260506002306 63 150 5.0 7.0 0.00 0.00 0.00 78 1013.1
20260506001800 64 158 7.0 9.0 0.00 0.00 0.00 77 1012.8
20260506001258 64 117 8.0 9.0 0.00 0.00 0.00 76 1012.7
20260506000755 64 103 7.0 8.0 0.00 0.00 0.00 76 1012.6
20260506000254 64 122 8.0 10.0 0.00 0.00 0.00 75 1012.6
20260505235749 64 108 9.0 11.0 0.00 0.00 0.00 74 1012.6
20260505235247 65 90 7.0 10.0 0.00 0.00 0.00 73 1012.7
20260505234743 65 110 7.0 9.0 0.00 0.00 0.00 73 1012.5
20260505234241 65 120 7.0 9.0 0.00 0.00 0.00 73 1012.7
20260505233737 65 118 7.0 9.0 0.00 0.00 0.00 73 1012.6
20260505233236 65 66 9.0 13.0 0.00 0.00 0.00 72 1012.5
20260505232732 65 136 9.0 11.0 0.00 0.00 0.00 70 1012.4
20260505232230 66 198 9.0 15.0 0.00 0.00 0.00 70 1012.5
20260505231726 66 98 6.0 10.0 0.00 0.00 0.00 70 1012.4
20260505231226 66 90 6.0 8.0 0.00 0.00 0.00 69 1012.4
20260505230723 66 94 7.0 9.0 0.00 0.00 0.00 68 1012.2
20260505230219 66 87 15.0 20.0 0.00 0.00 0.00 67 1012.3
20260505225716 66 103 5.0 7.0 0.00 0.00 0.00 68 1012.1
20260505225213 66 106 6.0 8.0 0.00 0.00 0.00 67 1012.2
20260505224708 66 128 6.0 8.0 0.00 0.00 0.00 67 1012.2
20260505224206 67 91 8.0 11.0 0.00 0.00 0.00 67 1012.0
20260505223704 67 111 11.0 17.0 0.00 0.00 0.00 66 1011.9
20260505223200 68 140 9.0 11.0 0.00 0.00 0.00 65 1012.1
20260505222656 68 119 6.0 7.0 0.00 0.00 0.00 66 1011.8
20260505222152 68 136 5.0 7.0 0.00 0.00 0.00 65 1012.0
20260505221650 68 49 9.0 10.0 0.00 0.00 0.00 65 1012.2
20260505221146 68 105 9.0 11.0 0.00 0.00 0.00 66 1012.1
20260505220643 68 102 9.0 13.0 0.00 0.00 0.00 65 1012.2
20260505220141 68 104 5.0 7.0 0.00 0.00 0.00 66 1012.0
20260505215638 68 129 6.0 8.0 0.00 0.00 0.00 66 1011.8
20260505215136 68 126 10.0 13.0 0.00 0.00 0.00 66 1011.9
20260505214634 68 127 8.0 9.0 0.00 0.00 0.00 66 1012.3
20260505214131 67 80 5.0 7.0 0.00 0.00 0.00 66 1011.8
20260505213629 67 70 8.0 11.0 0.00 0.00 0.00 66 1011.8
20260505213125 67 117 7.0 8.0 0.00 0.00 0.00 67 1011.6
20260505212620 68 158 7.0 10.0 0.00 0.00 0.00 66 1011.7
20260505212119 68 65 7.0 11.0 0.00 0.00 0.00 65 1011.6
20260505211615 69 176 10.0 11.0 0.00 0.00 0.00 64 1011.7
20260505211113 69 98 10.0 14.0 0.00 0.00 0.00 63 1011.5
20260505210609 69 146 7.0 10.0 0.00 0.00 0.00 63 1011.5
20260505210106 69 39 6.0 8.0 0.00 0.00 0.00 63 1011.7
20260505205604 69 129 7.0 8.0 0.00 0.00 0.00 64 1011.6
20260505205101 70 97 12.0 15.0 0.00 0.00 0.00 62 1011.8
20260505204558 70 126 6.0 7.0 0.00 0.00 0.00 62 1011.5
20260505204056 70 166 10.0 13.0 0.00 0.00 0.00 61 1011.6
20260505203552 71 121 7.0 9.0 0.00 0.00 0.00 61 1011.4
20260505203049 71 55 5.0 7.0 0.00 0.00 0.00 61 1011.5
20260505202545 71 91 6.0 8.0 0.00 0.00 0.00 61 1011.3
20260505202041 71 113 12.0 15.0 0.00 0.00 0.00 59 1011.7
20260505201538 71 103 9.0 11.0 0.00 0.00 0.00 59 1011.7
20260505201036 71 86 10.0 14.0 0.00 0.00 0.00 60 1011.8
20260505200534 71 112 9.0 11.0 0.00 0.00 0.00 61 1011.5
20260505200030 71 128 9.0 11.0 0.00 0.00 0.00 61 1011.7
20260505195526 71 166 4.0 7.0 0.00 0.00 0.00 61 1011.5
20260505195024 71 135 8.0 13.0 0.00 0.00 0.00 61 1011.8
20260505194521 70 109 7.0 8.0 0.00 0.00 0.00 64 1011.7
20260505194016 72 114 10.0 13.0 0.00 0.00 0.00 60 1011.8
20260505193514 73 125 5.0 7.0 0.00 0.00 0.00 62 1011.9
20260505193011 72 113 5.0 6.0 0.00 0.00 0.00 62 1012.0
20260505192509 72 156 4.0 5.0 0.00 0.00 0.00 63 1012.1
20260505192007 71 134 8.0 11.0 0.00 0.00 0.00 63 1012.1
20260505191505 71 156 6.0 8.0 0.00 0.00 0.00 64 1012.2
20260505191002 70 97 5.0 7.0 0.00 0.00 0.00 65 1012.1
20260505190457 70 96 7.0 9.0 0.00 0.00 0.00 64 1012.1
20260505185952 70 358 5.0 7.0 0.00 0.00 0.00 64 1012.3
20260505185450 71 128 6.0 7.0 0.00 0.00 0.00 65 1012.3
20260505184946 71 53 4.0 7.0 0.00 0.00 0.00 64 1012.5
20260505184443 70 159 4.0 5.0 0.00 0.00 0.00 65 1012.2
20260505183939 71 108 6.0 9.0 0.00 0.00 0.00 65 1012.2
20260505183437 71 169 6.0 8.0 0.00 0.00 0.00 64 1012.3